STARLINK-37663, 69048

Orbit data source: Space-Track

STARLINK-37663, 69048 is a payload satellite owned by SpaceX/Seattle (US) in SSO that was launched on Wed, 06 May 2026 UTC via an FALCON 9 launch vehicle from the Air Force Western Test Range (AFWTR). Payload-class satellites include a variety of spacecraft equipped with specific instruments for various scientific and technological missions. These include communications satellites like Starlink; space stations such as the ISS; scientific satellites like the Hubble; Earth observation satellites from companies like Planet Labs, Umbra, and HawkEye 360; GPS; miniature CubeSats for education and research; and military/defense satellites.

Loading next visibility...
Identifier
69048, 2026-101Z
Orbit
SSO
Country
Flag of USUS
Related business
Manufacturer
SpaceX/Seattle
Mission
Operational spacecraft
Bus & Motor
STARLINK V2MO, Unknown motor
Mass
575 kg wet, ~530 kg dry
Launch date (UTC)
2026-05-06 (1 month ago)
Launch vehicle
FALCON 9
Launch site
Air Force Western Test Range (AFWTR)
Object type
Payload
Rocket body
Debris
Shape & HBR
Unknown shape, 14.5 m
Radar Cross Section
Large (>1 m²)

Expand to show TLE details & history
Last TLE update: 16 hours ago

TLE from 16 hours ago
0 STARLINK-37663
1 69048U 26101Z   26171.17363105  .00013233  00000-0  41143-3 0  9998
2 69048  97.2854  26.0259 0001570  88.0594 272.0828 15.33451263  7037
Epoch: 2026-06-20T04:10Z
TLE epoch observation values (Epoch: 2026-06-20T04:10:01.722Z)
Latitude
-0.00009°
Longitude
55.12669°
Altitude
468.598 km
Speed
7.632 km/s
True Right ascension
01h 44m 06s
True Declination
0° 00' 00"
Sunlit
Object was in daylight at epoch
Visualization orbit readout
Latitude
Unknown
Longitude
Unknown
Altitude
Unknown
Speed
Unknown
Apparent Right ascension
Unknown
Apparent Declination
Unknown
Sunlit
N/A
Visualization observer readout
Local Sidereal Time
07:16:02
Azimuth
Unknown
Elevation
Unknown
Doppler factor
Unknown
Orbital elements
Apogee altitude
463.541 km
Perigee altitude
461.393 km
Semi-major axis
6,840.604 km
Eccentricity
0.00016
Inclination
97.2854°
RAAN
26.0259°
Arg. of periapsis
88.0594°
True anomaly
272.06482°
Mean anomaly
272.0828°
Eccentric anomaly
272.07381°
Mean motion
3.8362 °/min
Orbital period
93.84 mins
BSTAR
0.00041143
Loading maneuver chart data...
Computing Atmospheric mass density...
Loading historical data...
Loading historical data...
Loading historical data...
Loading historical data...
Loading historical data...
Loading historical data...
Loading historical data...

Documentation

Showing up to 5 results
|